| time (UTC) | temp C | wind direction | speed KPH | gust KPH | rain 1hr cm | rain 24hr cm | rain mn cm | humidity % | barometer mb |
| 20260506124510 | 14 | 141 | 0.0 | 6.4 | 0.00 | 0.00 | 0.00 | 80 | 1020.5 |
| 20260506123009 | 14 | 147 | 1.6 | 11.3 | 0.00 | 0.00 | 0.00 | 79 | 1020.3 |
| 20260506121507 | 14 | 137 | 0.0 | 4.8 | 0.00 | 0.00 | 0.00 | 79 | 1020.3 |
| 20260506120006 | 14 | 146 | 1.6 | 6.4 | 0.00 | 0.00 | 0.00 | 79 | 1020.2 |
| 20260506114505 | 14 | 88 | 1.6 | 8.0 | 0.00 | 0.00 | 0.00 | 79 | 1020.1 |
| 20260506113008 | 14 | 161 | 3.2 | 9.7 | 0.00 | 0.00 | 0.00 | 79 | 1020.0 |
| 20260506111502 | 14 | 129 | 0.0 | 6.4 | 0.00 | 0.00 | 0.00 | 79 | 1019.9 |
| 20260506110103 | 14 | 157 | 1.6 | 4.8 | 0.00 | 0.00 | 0.00 | 78 | 1019.8 |
| 20260506104601 | 14 | 142 | 0.0 | 8.0 | 0.00 | 0.00 | 0.00 | 78 | 1019.6 |
| 20260506103102 | 14 | 148 | 0.0 | 4.8 | 0.00 | 0.00 | 0.00 | 78 | 1019.5 |
| 20260506101557 | 14 | 128 | 1.6 | 9.7 | 0.00 | 0.00 | 0.00 | 77 | 1019.3 |
| 20260506100059 | 15 | 161 | 1.6 | 8.0 | 0.00 | 0.00 | 0.00 | 77 | 1019.3 |
| 20260506094553 | 15 | 134 | 1.6 | 4.8 | 0.00 | 0.00 | 0.00 | 77 | 1019.3 |
| 20260506093052 | 15 | 144 | 1.6 | 4.8 | 0.00 | 0.00 | 0.00 | 76 | 1019.3 |
| 20260506091554 | 15 | 143 | 0.0 | 8.0 | 0.00 | 0.00 | 0.00 | 76 | 1019.4 |
| 20260506090049 | 15 | 163 | 0.0 | 9.7 | 0.00 | 0.00 | 0.00 | 76 | 1019.3 |
| 20260506084552 | 15 | 161 | 1.6 | 6.4 | 0.00 | 0.00 | 0.00 | 76 | 1019.3 |
| 20260506083051 | 15 | 153 | 0.0 | 4.8 | 0.00 | 0.00 | 0.00 | 75 | 1019.3 |
| 20260506081546 | 15 | 199 | 0.0 | 8.0 | 0.00 | 0.00 | 0.00 | 75 | 1019.4 |
| 20260506073043 | 15 | 186 | 0.0 | 4.8 | 0.00 | 0.05 | 0.00 | 75 | 1019.0 |
| 20260506071540 | 15 | 136 | 1.6 | 6.4 | 0.00 | 0.05 | 0.00 | 75 | 1018.9 |
| 20260506061534 | 16 | 186 | 0.0 | 6.4 | 0.00 | 0.25 | 0.05 | 74 | 1018.4 |
| 20260506044527 | 16 | 254 | 1.6 | 8.0 | 0.00 | 0.64 | 0.05 | 74 | 1017.5 |
| 20260506043025 | 16 | 194 | 1.6 | 11.3 | 0.00 | 0.64 | 0.05 | 74 | 1017.3 |
| 20260506041521 | 16 | 173 | 3.2 | 11.3 | 0.00 | 0.64 | 0.05 | 74 | 1017.0 |
| 20260506040034 | 16 | 179 | 0.0 | 9.7 | 0.00 | 0.64 | 0.05 | 73 | 1017.0 |
| 20260506034521 | 17 | 242 | 3.2 | 11.3 | 0.00 | 0.97 | 0.05 | 73 | 1017.0 |
| 20260506033019 | 17 | 213 | 6.4 | 12.9 | 0.00 | 0.97 | 0.05 | 72 | 1016.9 |
| 20260506031517 | 17 | 258 | 0.0 | 11.3 | 0.00 | 0.97 | 0.05 | 72 | 1016.7 |
| 20260506030016 | 17 | 172 | 1.6 | 16.1 | 0.00 | 0.97 | 0.05 | 70 | 1016.3 |
| 20260506024516 | 17 | 170 | 3.2 | 12.9 | 0.00 | 1.07 | 0.05 | 70 | 1016.2 |
| 20260506023025 | 18 | 192 | 0.0 | 9.7 | 0.00 | 1.07 | 0.05 | 70 | 1016.0 |
| 20260506021528 | 18 | 178 | 1.6 | 12.9 | 0.00 | 1.07 | 0.05 | 69 | 1015.8 |
| 20260506020013 | 18 | 146 | 3.2 | 12.9 | 0.00 | 1.07 | 0.05 | 67 | 1015.8 |
| 20260506014513 | 19 | 18 | 3.2 | 12.9 | 0.00 | 1.17 | 0.05 | 65 | 1015.7 |
| 20260506013012 | 19 | 20 | 4.8 | 9.7 | 0.00 | 1.17 | 0.05 | 63 | 1015.6 |
| 20260506011512 | 20 | 17 | 0.0 | 12.9 | 0.00 | 1.17 | 0.05 | 62 | 1015.5 |
| 20260506010023 | 20 | 15 | 1.6 | 8.0 | 0.00 | 1.17 | 0.05 | 59 | 1015.4 |
| 20260506004515 | 20 | 13 | 0.0 | 4.8 | 0.00 | 1.27 | 0.05 | 58 | 1015.5 |
| 20260506003010 | 21 | 13 | 1.6 | 8.0 | 0.00 | 1.27 | 0.05 | 56 | 1015.3 |
| 20260506001509 | 21 | 100 | 1.6 | 6.4 | 0.00 | 1.27 | 0.05 | 56 | 1015.3 |
| 20260506000010 | 21 | 202 | 1.6 | 6.4 | 0.00 | 1.27 | 0.05 | 55 | 1015.4 |
| 20260505234518 | 21 | 193 | 1.6 | 11.3 | 0.00 | 1.40 | 0.05 | 56 | 1015.3 |
| 20260505233006 | 20 | 137 | 0.0 | 8.0 | 0.00 | 1.40 | 0.05 | 58 | 1015.3 |
| 20260505231500 | 19 | 157 | 1.6 | 8.0 | 0.00 | 1.40 | 0.05 | 60 | 1015.5 |
| 20260505224600 | 20 | 245 | 0.0 | 1.6 | 0.00 | 1.42 | 0.05 | 61 | 1015.6 |
| 20260505223059 | 20 | 132 | 0.0 | 4.8 | 0.00 | 1.42 | 0.05 | 61 | 1015.7 |
| 20260505221559 | 20 | 69 | 0.0 | 4.8 | 0.00 | 1.42 | 0.05 | 61 | 1015.9 |
| 20260505220058 | 19 | 82 | 1.6 | 4.8 | 0.00 | 1.42 | 0.05 | 62 | 1016.0 |
| 20260505214624 | 19 | 84 | 1.6 | 11.3 | 0.00 | 1.42 | 0.05 | 62 | 1016.1 |
| 20260505213103 | 20 | 86 | 0.0 | 4.8 | 0.00 | 1.42 | 0.05 | 61 | 1016.2 |
| 20260505211554 | 19 | 121 | 0.0 | 6.4 | 0.00 | 1.42 | 0.05 | 61 | 1016.2 |
| 20260505210058 | 19 | 106 | 1.6 | 9.7 | 0.00 | 1.42 | 0.05 | 63 | 1016.2 |
| 20260505204558 | 18 | 197 | 1.6 | 4.8 | 0.00 | 1.42 | 0.05 | 64 | 1016.3 |
| 20260505203053 | 18 | 273 | 0.0 | 6.4 | 0.00 | 1.42 | 0.05 | 66 | 1016.4 |
| 20260505201553 | 18 | 121 | 1.6 | 4.8 | 0.00 | 1.42 | 0.05 | 65 | 1016.4 |
| 20260505200100 | 18 | 10 | 0.0 | 4.8 | 0.00 | 1.42 | 0.05 | 66 | 1016.5 |
| 20260505194549 | 18 | 107 | 0.0 | 6.4 | 0.00 | 1.42 | 0.05 | 68 | 1016.6 |
| 20260505193048 | 17 | 292 | 0.0 | 3.2 | 0.00 | 1.42 | 0.05 | 70 | 1016.5 |
| 20260505191538 | 17 | 275 | 0.0 | 3.2 | 0.00 | 1.42 | 0.05 | 71 | 1016.7 |
| 20260505190039 | 16 | 306 | 1.6 | 6.4 | 0.00 | 1.42 | 0.05 | 73 | 1016.7 |
| 20260505184532 | 16 | 71 | 1.6 | 4.8 | 0.00 | 1.45 | 0.05 | 74 | 1016.6 |
| 20260505183030 | 16 | 119 | 0.0 | 0.0 | 0.00 | 1.45 | 0.05 | 76 | 1016.6 |
| 20260505181528 | 16 | 200 | 0.0 | 0.0 | 0.00 | 1.45 | 0.05 | 77 | 1016.5 |
| 20260505180050 | 15 | 71 | 0.0 | 6.4 | 0.00 | 1.45 | 0.05 | 79 | 1016.4 |
| 20260505174546 | 15 | 290 | 0.0 | 0.0 | 0.00 | 1.45 | 0.05 | 81 | 1016.4 |
| 20260505173025 | 15 | 135 | 0.0 | 1.6 | 0.00 | 1.45 | 0.05 | 80 | 1016.3 |
| 20260505171523 | 14 | 12 | 0.0 | 3.2 | 0.00 | 1.45 | 0.05 | 82 | 1016.3 |
| 20260505170018 | 14 | 16 | 0.0 | 6.4 | 0.00 | 1.45 | 0.05 | 83 | 1016.3 |
| 20260505164516 | 13 | 12 | 1.6 | 6.4 | 0.00 | 1.45 | 0.05 | 85 | 1016.3 |
| 20260505163019 | 13 | 13 | 3.2 | 9.7 | 0.00 | 1.45 | 0.05 | 86 | 1016.2 |
| 20260505161510 | 13 | 12 | 0.0 | 9.7 | 0.00 | 1.45 | 0.05 | 87 | 1016.1 |
| 20260505153004 | 12 | 119 | 1.6 | 11.3 | 0.00 | 1.45 | 0.05 | 89 | 1016.0 |
| 20260505151502 | 12 | 130 | 1.6 | 11.3 | 0.00 | 1.45 | 0.05 | 90 | 1015.8 |
| 20260505140107 | 12 | 159 | 1.6 | 12.9 | 0.00 | 1.45 | 0.05 | 91 | 1015.3 |